20041111,000015,718780,33.138995,-120.043330,3.7,17.661,33.302,43.729,98.05,0.0,0.222, NaN, NaN, NaN,24.018,   NaN,17.37,1018.47,90.07,17.04,27.0,18.5,7.5,7.7,288.4,272.5,4.2,4.1,NaN, NaN,25.0,239.9,241.0,1100131217,1100131215,1,7.7,000016,000015,238.6,33.138920,-120.043232,NaN,NaN,NaN,17.820, NaN,NaN,NaN, NaN, NaN
20041111,000046,718811,33.138482,-120.044440,3.7,17.664,33.302,43.731,97.64,0.0,0.224, NaN, NaN, NaN,24.016,   NaN,17.42,1018.44,90.29,17.11,26.4,18.2,7.4,7.6,288.2,272.7,4.1,4.0,NaN, NaN,24.7,245.2,241.1,1100131247,1100131245,1,7.6,000046,000045,238.6,33.138412,-120.044333,NaN,NaN,NaN,17.823, NaN,NaN,NaN, NaN, NaN
20041111,000116,718841,33.137950,-120.045578,3.7,17.666,33.301,43.732,92.81,0.0,0.221, NaN, NaN, NaN,24.015,   NaN,17.35,1018.43,89.66,17.04,27.0,18.8,7.6,7.8,287.7,272.7,4.4,4.2,NaN, NaN,24.4,239.1,240.8,1100131278,1100131275,1,7.7,000077,000075,238.4,33.137902,-120.045437,NaN,NaN,NaN,17.825, NaN,NaN,NaN, NaN, NaN
20041111,000146,718871,33.137455,-120.046648,3.7,17.668,33.300,43.733,89.60,0.0,0.221, NaN, NaN, NaN,24.014,   NaN,17.41,1018.44,90.04,17.08,28.2,19.6,7.9,8.2,287.8,272.3,4.6,4.6,NaN, NaN,24.3,242.1,240.1,1100131308,1100131305,1,7.6,000106,000105,237.8,33.137383,-120.046545,NaN,NaN,NaN,17.827, NaN,NaN,NaN, NaN, NaN
20041111,000217,718902,33.136885,-120.047852,3.7,17.669,33.299,43.733,89.57,0.0,0.223, NaN, NaN, NaN,24.013,   NaN,17.45,1018.41,90.32,17.11,26.4,17.9,7.8,8.1,285.9,270.0,4.4,4.3,NaN, NaN,24.8,241.8,240.4,1100131338,1100131335,1,8.3,000137,000135,237.4,33.136838,-120.047700,NaN,NaN,NaN,17.828, NaN,NaN,NaN, NaN, NaN
20041111,000247,718932,33.136262,-120.049122,3.7,17.668,33.298,43.729,95.79,0.0,0.215, NaN, NaN, NaN,24.012,   NaN,17.39,1018.40,89.77,17.04,25.6,16.9,8.3,8.6,284.5,267.8,4.6,4.6,NaN, NaN,24.6,239.7,239.0,1100131369,1100131365,1,9.1,000167,000165,237.0,33.136217,-120.048958,NaN,NaN,NaN,17.827, NaN,NaN,NaN, NaN, NaN
20041111,000316,718962,33.135570,-120.050503,3.7,17.664,33.292,43.719,103.91,0.0,0.220, NaN, NaN, NaN,24.008,   NaN,17.40,1018.42,89.85,17.08,27.1,18.0,8.8,9.2,287.6,270.3,5.0,4.9,NaN, NaN,24.5,238.4,238.4,1100131398,1100131395,1,9.8,000197,000195,236.7,33.135535,-120.050303,NaN,NaN,NaN,17.823, NaN,NaN,NaN, NaN, NaN
20041111,000347,718992,33.134843,-120.051938,3.7,17.660,33.295,43.718,99.55,0.0,0.215, NaN, NaN, NaN,24.011,   NaN,17.47,1018.42,90.40,17.20,26.9,18.2,8.6,8.9,291.6,273.8,4.5,4.3,NaN, NaN,24.8,239.5,238.9,1100131429,1100131425,1,10.2,000227,000225,236.7,33.134818,-120.051735,NaN,NaN,NaN,17.819, NaN,NaN,NaN, NaN, NaN
20041111,000416,719021,33.134080,-120.053453,3.7,17.655,33.293,43.712,94.84,0.0,0.213, NaN, NaN, NaN,24.011,   NaN,17.47,1018.40,90.39,17.14,24.6,16.2,8.4,8.7,291.2,272.4,4.1,3.8,NaN, NaN,24.6,239.8,239.1,1100131458,1100131455,1,10.9,000257,000255,236.9,33.134062,-120.053240,NaN,NaN,NaN,17.815, NaN,NaN,NaN, NaN, NaN
20041111,000446,719051,33.133267,-120.055070,3.7,17.653,33.291,43.708,94.11,0.0,0.210, NaN, NaN, NaN,24.010,   NaN,17.43,1018.42,90.41,17.20,23.9,15.1,8.7,9.0,291.6,271.2,4.1,3.8,NaN, NaN,24.5,241.0,239.1,1100131488,1100131485,1,11.4,000287,000285,237.6,33.133258,-120.054847,NaN,NaN,NaN,17.813, NaN,NaN,NaN, NaN, NaN
20041111,000517,719082,33.132442,-120.056738,3.7,17.653,33.289,43.705,98.84,0.0,0.207, NaN, NaN, NaN,24.008,   NaN,17.44,1018.40,90.35,17.14,23.9,14.8,9.3,9.6,291.2,270.8,4.4,4.1,NaN, NaN,24.7,237.2,239.1,1100131518,1100131515,1,11.7,000317,000315,237.9,33.132440,-120.056515,NaN,NaN,NaN,17.813, NaN,NaN,NaN, NaN, NaN
20041111,000547,719112,33.131602,-120.058437,3.7,17.652,33.287,43.702,99.03,0.0,0.210, NaN, NaN, NaN,24.007,   NaN,17.42,1018.39,90.41,17.11,24.0,15.1,9.4,9.8,292.6,272.5,4.5,4.1,NaN, NaN,24.6,240.4,239.3,1100131548,1100131545,1,11.9,000347,000345,238.5,33.131598,-120.058220,NaN,NaN,NaN,17.812, NaN,NaN,NaN, NaN, NaN
20041111,000617,719142,33.130740,-120.060212,3.7,17.653,33.285,43.700,95.59,0.0,0.209, NaN, NaN, NaN,24.005,   NaN,17.42,1018.41,90.41,17.14,24.2,15.5,9.5,9.9,293.9,273.9,4.5,4.2,NaN, NaN,24.9,240.9,239.9,1100131579,1100131575,1,12.0,000378,000380,238.9,33.130618,-120.060230,NaN,NaN,NaN,17.813, NaN,NaN,NaN, NaN, NaN
20041111,000647,719172,33.129910,-120.061940,3.7,17.652,33.283,43.697,92.82,0.0,0.205, NaN, NaN, NaN,24.004,   NaN,17.45,1018.39,90.41,17.14,24.3,15.6,9.5,9.9,294.9,274.9,4.5,4.2,NaN, NaN,25.0,241.0,240.1,1100131609,1100131605,1,11.9,000408,000405,238.8,33.129928,-120.061665,NaN,NaN,NaN,17.812, NaN,NaN,NaN, NaN, NaN
20041111,000718,719203,33.129097,-120.063667,3.7,17.653,33.281,43.695,92.53,0.0,0.207, NaN, NaN, NaN,24.002,   NaN,17.43,1018.40,90.41,17.14,24.8,15.8,9.7,10.1,294.3,274.6,4.7,4.4,NaN, NaN,25.1,238.8,240.8,1100131639,1100131635,1,12.0,000438,000440,238.9,33.128973,-120.063682,NaN,NaN,NaN,17.813, NaN,NaN,NaN, NaN, NaN
20041111,000747,719232,33.128323,-120.065342,3.7,17.649,33.279,43.690,92.21,0.0,0.209, NaN, NaN, NaN,24.001,   NaN,17.49,1018.41,90.41,17.20,24.7,15.8,9.7,10.1,294.9,275.0,4.7,4.4,NaN, NaN,25.5,240.4,241.2,1100131669,1100131665,1,12.0,000467,000465,238.9,33.128303,-120.065122,NaN,NaN,NaN,17.809, NaN,NaN,NaN, NaN, NaN
20041111,000817,719262,33.127483,-120.067128,3.8,17.645,33.277,43.685,90.83,0.0,0.206, NaN, NaN, NaN,24.001,   NaN,17.47,1018.40,90.38,17.20,24.6,15.7,9.6,10.0,295.0,275.3,4.6,4.3,NaN, NaN,25.3,242.3,240.6,1100131699,1100131695,1,11.9,000498,000500,238.8,33.127360,-120.067137,NaN,NaN,NaN,17.805, NaN,NaN,NaN, NaN, NaN
20041111,000847,719292,33.126698,-120.068788,3.7,17.640,33.276,43.678,91.47,0.0,0.206, NaN, NaN, NaN,24.002,   NaN,17.48,1018.41,90.41,17.27,24.0,15.0,9.6,10.0,294.0,273.6,4.5,4.2,NaN, NaN,25.7,242.8,240.8,1100131729,1100131725,1,11.9,000527,000525,238.3,33.126680,-120.068575,NaN,NaN,NaN,17.800, NaN,NaN,NaN, NaN, NaN
20041111,000917,719322,33.125853,-120.070545,3.7,17.634,33.275,43.672,97.14,0.0,0.209, NaN, NaN, NaN,24.002,   NaN,17.45,1018.42,90.41,17.20,23.2,14.6,9.8,10.2,290.3,271.0,4.7,4.5,NaN, NaN,25.4,237.3,239.8,1100131759,1100131755,1,11.8,000558,000560,237.7,33.125732,-120.070553,NaN,NaN,NaN,17.794, NaN,NaN,NaN, NaN, NaN
20041111,000947,719353,33.125057,-120.072168,3.7,17.631,33.275,43.668,101.19,0.0,0.213, NaN, NaN, NaN,24.003,   NaN,17.42,1018.39,90.41,17.14,22.6,14.5,10.2,10.6,286.3,268.7,5.0,4.9,NaN, NaN,26.1,238.7,239.8,1100131789,1100131785,1,11.8,000587,000585,238.5,33.125040,-120.071960,NaN,NaN,NaN,17.791, NaN,NaN,NaN, NaN, NaN
20041111,001017,719383,33.124203,-120.073900,3.7,17.631,33.274,43.667,108.04,0.0,0.211, NaN, NaN, NaN,24.002,   NaN,17.45,1018.38,90.41,17.20,23.2,15.2,10.0,10.4,287.8,270.5,4.9,4.8,NaN, NaN,25.8,239.8,239.8,1100131819,1100131815,1,11.7,000618,000620,238.1,33.124088,-120.073910,NaN,NaN,NaN,17.791, NaN,NaN,NaN, NaN, NaN
20041111,001047,719412,33.123397,-120.075507,3.7,17.630,33.272,43.664,116.63,0.0,0.216, NaN, NaN, NaN,24.001,   NaN,17.46,1018.38,90.41,17.20,23.0,14.7,9.8,10.2,288.3,269.9,4.7,4.6,NaN, NaN,25.9,238.7,239.1,1100131849,1100131845,1,11.8,000647,000645,237.8,33.123397,-120.075307,NaN,NaN,NaN,17.790, NaN,NaN,NaN, NaN, NaN
20041111,001118,719444,33.122540,-120.077233,3.7,17.627,33.269,43.657,125.64,0.0,0.213, NaN, NaN, NaN,23.999,   NaN,17.46,1018.37,90.41,17.24,22.4,13.7,9.6,10.1,288.2,268.5,4.5,4.4,NaN, NaN,26.2,239.8,239.0,1100131879,1100131875,1,11.7,000678,000680,237.2,33.122427,-120.077248,NaN,NaN,NaN,17.787, NaN,NaN,NaN, NaN, NaN
20041111,001147,719472,33.121735,-120.078842,3.7,17.614,33.266,43.641,133.52,0.0,0.214, NaN, NaN, NaN,24.000,   NaN,17.47,1018.36,90.41,17.24,23.1,14.4,9.7,10.0,289.6,270.1,4.6,4.4,NaN, NaN,26.1,239.0,239.9,1100131909,1100131905,1,11.7,000707,000705,237.6,33.121733,-120.078637,NaN,NaN,NaN,17.774, NaN,NaN,NaN, NaN, NaN
20041111,001217,719502,33.120880,-120.080565,3.7,17.594,33.262,43.619,142.41,0.0,0.217, NaN, NaN, NaN,24.002,   NaN,17.43,1018.34,90.46,17.24,25.1,16.4,9.7,10.0,293.1,274.4,4.8,4.5,NaN, NaN,26.3,239.6,239.4,1100131939,1100131935,1,11.7,000738,000740,238.2,33.120770,-120.080582,NaN,NaN,NaN,17.755, NaN,NaN,NaN, NaN, NaN
20041111,001248,719533,33.120028,-120.082293,3.7,17.570,33.260,43.593,144.13,0.0,0.216, NaN, NaN, NaN,24.006,   NaN,17.47,1018.33,90.42,17.28,26.2,17.3,9.6,10.0,295.5,276.8,4.9,4.5,NaN, NaN,26.7,240.5,239.6,1100131970,1100131970,1,11.7,000769,000770,239.2,33.119945,-120.082252,NaN,NaN,NaN,17.731, NaN,NaN,NaN, NaN, NaN
20041111,001317,719562,33.119258,-120.083925,3.7,17.551,33.261,43.576,145.59,0.0,0.216, NaN, NaN, NaN,24.012,   NaN,17.45,1018.31,90.42,17.20,25.1,16.4,9.7,10.1,293.6,274.9,4.8,4.5,NaN, NaN,25.9,242.4,240.5,1100131999,1100131995,1,11.7,000798,000795,238.7,33.119283,-120.083658,NaN,NaN,NaN,17.712, NaN,NaN,NaN, NaN, NaN
20041111,001348,719593,33.118458,-120.085605,3.7,17.554,33.266,43.584,151.15,0.0,0.221, NaN, NaN, NaN,24.014,   NaN,17.45,1018.34,90.44,17.20,24.9,16.3,10.0,10.4,291.8,273.6,5.1,4.9,NaN, NaN,26.2,241.4,241.0,1100132030,1100132030,1,11.7,000828,000830,238.8,33.118347,-120.085618,NaN,NaN,NaN,17.715, NaN,NaN,NaN, NaN, NaN
20041111,001418,719624,33.117655,-120.087285,3.7,17.563,33.269,43.597,161.83,0.0,0.219, NaN, NaN, NaN,24.014,   NaN,17.42,1018.29,90.42,17.24,25.3,16.5,10.2,10.6,291.6,273.5,5.3,5.0,NaN, NaN,25.4,240.1,240.5,1100132059,1100132055,1,11.7,000858,000860,239.2,33.117548,-120.087302,NaN,NaN,NaN,17.724, NaN,NaN,NaN, NaN, NaN
20041111,001448,719653,33.116858,-120.088973,3.7,17.568,33.271,43.603,170.60,0.0,0.220, NaN, NaN, NaN,24.015,   NaN,17.48,1018.30,90.67,17.28,24.5,16.1,9.9,10.3,292.1,273.8,4.9,4.7,NaN, NaN,26.3,242.3,240.0,1100132090,1100132090,1,11.8,000888,000890,238.3,33.116748,-120.088983,NaN,NaN,NaN,17.729, NaN,NaN,NaN, NaN, NaN
20041111,001517,719682,33.116052,-120.090655,3.7,17.564,33.273,43.602,183.92,0.0,0.218, NaN, NaN, NaN,24.017,   NaN,17.49,1018.30,90.49,17.27,24.1,15.7,9.7,10.1,292.1,273.6,4.8,4.5,NaN, NaN,26.5,239.6,240.6,1100132119,1100132115,1,11.7,000918,000920,238.6,33.115942,-120.090668,NaN,NaN,NaN,17.725, NaN,NaN,NaN, NaN, NaN
20041111,001548,719713,33.115225,-120.092327,3.7,17.555,33.276,43.598,198.10,0.0,0.220, NaN, NaN, NaN,24.022,   NaN,17.45,1018.26,90.50,17.28,23.9,15.7,9.8,10.3,291.0,273.0,4.9,4.7,NaN, NaN,26.4,238.4,239.2,1100132150,1100132150,1,11.7,000948,000950,238.3,33.115113,-120.092340,NaN,NaN,NaN,17.716, NaN,NaN,NaN, NaN, NaN
20041111,001618,719743,33.114365,-120.094062,3.7,17.555,33.283,43.606,201.19,0.0,0.229, NaN, NaN, NaN,24.028,   NaN,17.47,1018.27,90.56,17.28,24.1,16.0,9.9,10.4,291.3,273.6,4.9,4.8,NaN, NaN,25.3,238.2,239.9,1100132180,1100132180,1,11.7,000979,000980,237.8,33.114282,-120.094015,NaN,NaN,NaN,17.716, NaN,NaN,NaN, NaN, NaN
20041111,001648,719774,33.113562,-120.095685,3.7,17.571,33.294,43.634,192.54,0.0,0.233, NaN, NaN, NaN,24.032,   NaN,17.46,1018.25,90.55,17.32,23.9,15.9,10.0,10.4,291.0,273.9,5.0,4.8,NaN, NaN,25.0,242.1,240.3,1100132210,1100132210,1,11.8,001008,001010,239.7,33.113443,-120.095702,NaN,NaN,NaN,17.732, NaN,NaN,NaN, NaN, NaN
20041111,001717,719802,33.112745,-120.097370,3.7,17.589,33.295,43.652,191.54,0.0,0.233, NaN, NaN, NaN,24.028,   NaN,17.47,1018.28,90.63,17.28,22.8,14.9,9.7,10.1,290.6,273.1,4.7,4.5,NaN, NaN,24.8,240.9,239.7,1100132239,1100132235,1,11.8,001038,001040,239.7,33.112648,-120.097332,NaN,NaN,NaN,17.750, NaN,NaN,NaN, NaN, NaN
20041111,001748,719833,33.111907,-120.099115,3.7,17.603,33.299,43.668,192.34,0.0,0.227, NaN, NaN, NaN,24.028,   NaN,17.45,1018.28,90.47,17.32,23.8,15.1,9.8,10.2,292.4,273.6,4.8,4.6,NaN, NaN,25.4,245.3,240.2,1100132270,1100132270,1,11.8,001069,001070,240.0,33.111807,-120.099078,NaN,NaN,NaN,17.763, NaN,NaN,NaN, NaN, NaN
20041111,001818,719863,33.111092,-120.100798,3.7,17.613,33.301,43.682,190.91,0.0,0.223, NaN, NaN, NaN,24.028,   NaN,17.50,1018.27,90.70,17.28,23.5,14.7,9.8,10.2,292.2,272.9,4.8,4.6,NaN, NaN,26.1,238.7,240.0,1100132300,1100132300,1,11.7,001099,001100,239.3,33.111000,-120.100765,NaN,NaN,NaN,17.773, NaN,NaN,NaN, NaN, NaN
20041111,001849,719894,33.110253,-120.102538,3.7,17.619,33.301,43.688,192.86,0.0,0.229, NaN, NaN, NaN,24.027,   NaN,17.50,1018.28,90.62,17.32,23.1,14.3,9.8,10.2,291.9,272.6,4.8,4.5,NaN, NaN,25.6,240.8,240.1,1100132331,1100132330,1,11.7,001130,001130,239.1,33.110185,-120.102450,NaN,NaN,NaN,17.779, NaN,NaN,NaN, NaN, NaN
20041111,001918,719923,33.109465,-120.104165,3.7,17.622,33.302,43.692,185.68,0.0,0.223, NaN, NaN, NaN,24.026,   NaN,17.47,1018.27,90.61,17.32,22.5,14.1,9.7,10.1,291.1,272.2,4.7,4.5,NaN, NaN,25.4,242.3,240.3,1100132360,1100132360,1,11.8,001159,001160,239.9,33.109352,-120.104130,NaN,NaN,NaN,17.782, NaN,NaN,NaN, NaN, NaN
20041111,001949,719954,33.108657,-120.105853,3.7,17.628,33.303,43.699,181.69,0.0,0.223, NaN, NaN, NaN,24.026,   NaN,17.42,1018.25,90.47,17.28,22.3,14.4,9.9,10.4,289.8,272.0,4.9,4.8,NaN, NaN,26.0,240.3,240.8,1100132391,1100132390,1,11.7,001189,001190,240.5,33.108543,-120.105817,NaN,NaN,NaN,17.788, NaN,NaN,NaN, NaN, NaN
20041111,002019,719984,33.107862,-120.107548,3.7,17.637,33.304,43.709,175.69,0.0,0.224, NaN, NaN, NaN,24.025,   NaN,17.45,1018.27,89.87,17.28,22.6,14.2,10.3,10.7,288.8,270.8,5.2,5.1,NaN, NaN,25.8,242.5,240.7,1100132420,1100132420,1,11.7,001219,001220,240.3,33.107750,-120.107508,NaN,NaN,NaN,17.797, NaN,NaN,NaN, NaN, NaN
20041111,002049,720015,33.107035,-120.109298,3.7,17.640,33.301,43.709,165.18,0.0,0.223, NaN, NaN, NaN,24.022,   NaN,17.56,1018.28,90.07,17.32,23.8,15.0,10.2,10.7,291.2,272.7,5.2,5.0,NaN, NaN,25.3,241.4,240.6,1100132451,1100132450,1,11.8,001250,001250,240.3,33.106953,-120.109208,NaN,NaN,NaN,17.800, NaN,NaN,NaN, NaN, NaN
20041111,002119,720045,33.106248,-120.110940,3.7,17.630,33.300,43.698,151.23,0.0,0.224, NaN, NaN, NaN,24.023,   NaN,17.61,1018.25,90.05,17.35,24.1,15.3,10.1,10.5,292.1,273.3,5.1,4.9,NaN, NaN,26.0,239.3,240.2,1100132480,1100132480,1,11.8,001279,001280,239.9,33.106152,-120.110912,NaN,NaN,NaN,17.790, NaN,NaN,NaN, NaN, NaN
20041111,002149,720074,33.105402,-120.112695,3.7,17.616,33.300,43.684,138.28,0.0,0.222, NaN, NaN, NaN,24.026,   NaN,17.59,1018.24,89.94,17.35,24.4,15.7,10.0,10.4,293.0,274.3,5.0,4.8,NaN, NaN,26.8,237.6,240.1,1100132511,1100132510,1,11.8,001310,001310,239.6,33.105338,-120.112603,NaN,NaN,NaN,17.776, NaN,NaN,NaN, NaN, NaN
20041111,002219,720104,33.104575,-120.114390,3.7,17.608,33.304,43.682,128.89,0.0,0.221, NaN, NaN, NaN,24.032,   NaN,17.57,1018.25,89.61,17.38,25.4,16.6,10.1,10.5,294.0,275.5,5.2,5.0,NaN, NaN,25.6,242.5,239.2,1100132541,1100132540,1,11.9,001340,001340,239.0,33.104510,-120.114293,NaN,NaN,NaN,17.768, NaN,NaN,NaN, NaN, NaN
20041111,002249,720134,33.103743,-120.116078,3.7,17.612,33.306,43.688,122.34,0.0,0.221, NaN, NaN, NaN,24.032,   NaN,17.55,1018.27,89.33,17.35,26.6,17.7,10.1,10.5,295.7,277.6,5.3,5.0,NaN, NaN,26.0,238.9,239.8,1100132571,1100132570,1,11.9,001370,001370,238.2,33.103680,-120.115973,NaN,NaN,NaN,17.772, NaN,NaN,NaN, NaN, NaN
20041111,002320,720165,33.102857,-120.117822,3.7,17.613,33.307,43.689,115.07,0.0,0.219, NaN, NaN, NaN,24.032,   NaN,17.57,1018.24,89.25,17.32,27.2,18.3,10.2,10.7,296.1,277.9,5.5,5.2,NaN, NaN,26.3,241.2,238.4,1100132602,1100132600,1,11.9,001401,001400,238.1,33.102822,-120.117653,NaN,NaN,NaN,17.773, NaN,NaN,NaN, NaN, NaN
20041111,002350,720195,33.101993,-120.119505,3.7,17.611,33.309,43.689,106.29,0.0,0.222, NaN, NaN, NaN,24.034,   NaN,17.58,1018.25,89.23,17.32,27.6,18.5,10.3,10.8,296.5,278.3,5.6,5.3,NaN, NaN,26.3,240.3,239.0,1100132632,1100132630,1,11.9,001431,001430,239.2,33.101967,-120.119345,NaN,NaN,NaN,17.771, NaN,NaN,NaN, NaN, NaN
20041111,002421,720226,33.101127,-120.121193,3.7,17.607,33.311,43.689,97.75,0.0,0.220, NaN, NaN, NaN,24.037,   NaN,17.52,1018.26,88.66,17.28,28.8,19.5,10.4,10.9,298.1,280.3,5.9,5.5,NaN, NaN,26.7,237.1,238.5,1100132662,1100132660,1,12.0,001461,001460,239.8,33.101098,-120.121040,NaN,NaN,NaN,17.767, NaN,NaN,NaN, NaN, NaN
20041111,002451,720256,33.100253,-120.122947,3.7,17.614,33.238,43.607,90.95,0.0,0.216, NaN, NaN, NaN,23.978,   NaN,17.63,1018.27,89.24,17.41,28.8,19.6,10.3,10.7,299.4,281.9,5.8,5.4,NaN, NaN,25.5,237.1,239.4,1100132693,1100132690,1,11.9,001492,001490,239.8,33.100247,-120.122742,NaN,NaN,NaN,17.774, NaN,NaN,NaN, NaN, NaN
20041111,002520,720286,33.099457,-120.124597,3.7,17.639,33.323,43.734,90.21,0.0,0.215, NaN, NaN, NaN,24.039,   NaN,17.64,1018.27,89.28,17.44,28.1,18.9,10.1,10.5,300.1,282.3,5.6,5.2,NaN, NaN,25.7,242.9,240.6,1100132722,1100132720,1,11.8,001521,001520,241.7,33.099417,-120.124437,NaN,NaN,NaN,17.799, NaN,NaN,NaN, NaN, NaN
20041111,002551,720316,33.098638,-120.126362,3.7,17.668,33.322,43.758,92.34,0.0,0.217, NaN, NaN, NaN,24.031,   NaN,17.60,1018.29,89.12,17.41,26.9,17.7,10.2,10.6,298.4,280.2,5.5,5.2,NaN, NaN,26.0,241.3,240.8,1100132753,1100132750,1,11.8,001552,001550,241.8,33.098618,-120.126155,NaN,NaN,NaN,17.827, NaN,NaN,NaN, NaN, NaN
20041111,002620,720345,33.097883,-120.128023,3.7,17.692,33.319,43.778,90.98,0.0,0.209, NaN, NaN, NaN,24.023,   NaN,17.58,1018.26,88.93,17.41,26.6,17.9,10.2,10.7,297.9,280.6,5.5,5.2,NaN, NaN,25.6,243.0,241.5,1100132782,1100132780,1,11.8,001581,001580,241.5,33.097838,-120.127872,NaN,NaN,NaN,17.851, NaN,NaN,NaN, NaN, NaN
20041111,002650,720375,33.097105,-120.129738,3.7,17.700,33.313,43.779,86.55,0.0,0.208, NaN, NaN, NaN,24.016,   NaN,17.58,1018.27,88.92,17.32,27.1,18.1,10.3,10.7,298.3,280.6,5.6,5.3,NaN, NaN,26.6,243.1,242.0,1100132812,1100132810,1,11.8,001611,001610,241.7,33.097058,-120.129590,NaN,NaN,NaN,17.859, NaN,NaN,NaN, NaN, NaN
20041111,002720,720405,33.096317,-120.131452,3.7,17.690,33.315,43.773,84.22,0.0,0.206, NaN, NaN, NaN,24.021,   NaN,17.59,1018.28,89.07,17.41,27.9,18.5,10.4,10.7,299.0,281.0,5.7,5.3,NaN, NaN,26.5,241.1,241.0,1100132842,1100132840,1,11.8,001641,001640,241.3,33.096270,-120.131303,NaN,NaN,NaN,17.849, NaN,NaN,NaN, NaN, NaN
20041111,002751,720436,33.095513,-120.133147,3.7,17.682,33.315,43.764,84.29,0.0,0.206, NaN, NaN, NaN,24.023,   NaN,17.59,1018.23,89.12,17.41,28.6,18.9,10.4,10.8,299.3,280.9,5.9,5.5,NaN, NaN,26.3,242.7,239.9,1100132872,1100132870,1,11.8,001671,001670,240.8,33.095493,-120.132942,NaN,NaN,NaN,17.841, NaN,NaN,NaN, NaN, NaN
20041111,002820,720466,33.094698,-120.134842,3.8,17.681,33.315,43.763,80.93,0.0,0.205, NaN, NaN, NaN,24.023,   NaN,17.59,1018.25,89.26,17.35,28.8,19.3,10.5,11.0,298.8,280.8,6.0,5.6,NaN, NaN,26.3,240.3,240.1,1100132902,1100132900,1,11.8,001701,001700,239.8,33.094650,-120.134697,NaN,NaN,NaN,17.840, NaN,NaN,NaN, NaN, NaN
20041111,002851,720496,33.093842,-120.136585,3.7,17.680,33.315,43.761,76.43,0.0,0.203, NaN, NaN, NaN,24.023,   NaN,17.56,1018.24,89.03,17.38,29.9,21.0,10.7,11.1,299.2,283.1,6.2,5.8,NaN, NaN,26.2,239.2,239.7,1100132933,1100132930,1,11.8,001732,001730,239.3,33.093823,-120.136385,NaN,NaN,NaN,17.839, NaN,NaN,NaN, NaN, NaN
20041111,002922,720527,33.093002,-120.138260,3.7,17.670,33.313,43.750,75.09,0.0,0.201, NaN, NaN, NaN,24.023,   NaN,17.59,1018.25,89.37,17.35,30.5,21.7,10.5,10.8,300.6,284.7,6.1,5.7,NaN, NaN,26.4,239.3,238.8,1100132963,1100132960,1,11.8,001762,001760,239.0,33.092978,-120.138057,NaN,NaN,NaN,17.829, NaN,NaN,NaN, NaN, NaN
20041111,002951,720556,33.092145,-120.139923,3.7,17.657,33.313,43.739,77.27,0.0,0.204, NaN, NaN, NaN,24.027,   NaN,17.59,1018.21,89.42,17.38,31.7,22.8,10.0,10.4,304.4,288.0,5.8,5.4,NaN, NaN,26.5,238.3,238.9,1100132993,1100132990,1,11.8,001792,001790,239.1,33.092133,-120.139723,NaN,NaN,NaN,17.817, NaN,NaN,NaN, NaN, NaN
20041111,003022,720588,33.091307,-120.141595,3.7,17.666,33.314,43.748,75.61,0.0,0.209, NaN, NaN, NaN,24.025,   NaN,17.56,1018.21,89.41,17.41,31.4,22.2,10.0,10.4,303.8,287.0,5.8,5.3,NaN, NaN,26.5,240.9,239.9,1100133023,1100133020,1,11.7,001822,001820,238.9,33.091302,-120.141390,NaN,NaN,NaN,17.825, NaN,NaN,NaN, NaN, NaN
20041111,003052,720618,33.090465,-120.143253,3.7,17.680,33.311,43.758,74.69,0.0,0.211, NaN, NaN, NaN,24.020,   NaN,17.51,1018.20,89.40,17.41,31.6,22.5,10.3,10.8,302.2,285.5,6.1,5.7,NaN, NaN,26.8,237.5,238.9,1100133053,1100133050,1,11.8,001852,001850,239.2,33.090450,-120.143045,NaN,NaN,NaN,17.839, NaN,NaN,NaN, NaN, NaN
20041111,003120,720645,33.089658,-120.144865,3.7,17.676,33.307,43.750,71.14,0.0,0.212, NaN, NaN, NaN,24.018,   NaN,17.58,1018.21,89.68,17.44,32.8,23.7,10.6,11.0,302.7,286.6,6.4,6.0,NaN, NaN,26.4,238.1,239.5,1100133082,1100133080,1,11.7,001881,001880,240.0,33.089617,-120.144708,NaN,NaN,NaN,17.835, NaN,NaN,NaN, NaN, NaN
20041111,003152,720677,33.088808,-120.146577,3.7,17.669,33.306,43.741,68.36,0.0,0.216, NaN, NaN, NaN,24.019,   NaN,17.54,1018.23,89.58,17.35,31.3,22.6,10.4,10.8,302.0,286.4,6.1,5.8,NaN, NaN,24.0,241.5,240.1,1100133113,1100133110,1,11.7,001912,001910,240.7,33.088798,-120.146382,NaN,NaN,NaN,17.828, NaN,NaN,NaN, NaN, NaN
20041111,003220,720705,33.088040,-120.148217,3.7,17.670,33.305,43.741,64.68,0.0,0.215, NaN, NaN, NaN,24.018,   NaN,17.50,1018.23,89.53,17.35,30.7,21.9,10.5,11.0,301.3,285.3,6.2,5.8,NaN, NaN,24.5,240.0,241.0,1100133142,1100133140,1,11.7,001941,001940,240.6,33.087997,-120.148080,NaN,NaN,NaN,17.829, NaN,NaN,NaN, NaN, NaN
20041111,003251,720736,33.087222,-120.149967,3.7,17.672,33.303,43.740,60.91,0.0,0.216, NaN, NaN, NaN,24.015,   NaN,17.51,1018.28,89.85,17.32,30.3,21.4,10.6,11.1,300.6,284.6,6.3,5.9,NaN, NaN,24.1,240.4,241.2,1100133173,1100133170,1,11.7,001972,001970,241.1,33.087197,-120.149773,NaN,NaN,NaN,17.831, NaN,NaN,NaN, NaN, NaN
20041111,003322,720768,33.086433,-120.151668,3.7,17.671,33.301,43.737,57.37,0.0,0.223, NaN, NaN, NaN,24.014,   NaN,17.50,1018.26,89.77,17.38,29.8,20.9,10.7,11.1,299.9,283.8,6.3,5.9,NaN, NaN,25.1,242.6,240.9,1100133203,1100133200,1,11.8,002002,002000,241.8,33.086413,-120.151475,NaN,NaN,NaN,17.830, NaN,NaN,NaN, NaN, NaN
20041111,003351,720796,33.085642,-120.153377,3.7,17.674,33.300,43.738,52.92,0.0,0.220, NaN, NaN, NaN,24.012,   NaN,17.54,1018.23,89.94,17.32,29.2,20.2,10.5,10.9,300.2,283.5,6.0,5.6,NaN, NaN,24.7,243.3,241.3,1100133233,1100133230,1,11.8,002032,002030,241.3,33.085625,-120.153180,NaN,NaN,NaN,17.833, NaN,NaN,NaN, NaN, NaN
20041111,003422,720827,33.084835,-120.155073,3.7,17.676,33.299,43.738,46.65,0.0,0.223, NaN, NaN, NaN,24.010,   NaN,17.50,1018.25,90.07,17.35,29.5,20.5,10.3,10.7,301.5,284.3,5.8,5.5,NaN, NaN,24.4,240.3,240.0,1100133263,1100133260,1,11.8,002062,002060,240.2,33.084818,-120.154877,NaN,NaN,NaN,17.835, NaN,NaN,NaN, NaN, NaN
20041111,003451,720857,33.084017,-120.156755,3.7,17.671,33.296,43.731,45.68,0.0,0.220, NaN, NaN, NaN,24.010,   NaN,17.50,1018.27,90.20,17.35,28.0,19.7,10.1,10.6,299.3,283.0,5.6,5.3,NaN, NaN,24.1,237.5,239.5,1100133293,1100133290,1,11.7,002092,002090,239.3,33.083998,-120.156558,NaN,NaN,NaN,17.830, NaN,NaN,NaN, NaN, NaN
20041111,003521,720887,33.083172,-120.158423,3.7,17.661,33.295,43.719,48.27,0.0,0.224, NaN, NaN, NaN,24.011,   NaN,17.46,1018.28,89.79,17.35,27.5,19.1,10.6,11.1,296.1,279.9,6.0,5.7,NaN, NaN,25.0,237.6,239.4,1100133323,1100133320,1,11.8,002122,002120,239.8,33.083158,-120.158237,NaN,NaN,NaN,17.820, NaN,NaN,NaN, NaN, NaN
20041111,003551,720916,33.082342,-120.160105,3.7,17.657,33.293,43.715,50.91,0.0,0.224, NaN, NaN, NaN,24.011,   NaN,17.48,1018.24,90.11,17.32,27.3,19.1,10.9,11.4,294.2,278.8,6.2,6.0,NaN, NaN,25.5,243.4,239.5,1100133353,1100133350,1,11.7,002152,002150,240.2,33.082317,-120.159912,NaN,NaN,NaN,17.817, NaN,NaN,NaN, NaN, NaN
20041111,003622,720948,33.081510,-120.161773,3.7,17.660,33.292,43.714,49.42,0.0,0.226, NaN, NaN, NaN,24.009,   NaN,17.47,1018.24,89.99,17.32,27.7,19.2,11.0,11.4,294.5,279.0,6.4,6.1,NaN, NaN,25.6,235.4,239.2,1100133383,1100133380,1,11.8,002182,002180,239.7,33.081483,-120.161597,NaN,NaN,NaN,17.819, NaN,NaN,NaN, NaN, NaN
20041111,003652,720977,33.080683,-120.163448,3.7,17.657,33.289,43.709,46.53,0.0,0.226, NaN, NaN, NaN,24.007,   NaN,17.42,1018.25,89.67,17.27,29.5,20.6,11.5,11.9,295.4,279.9,7.0,6.7,NaN, NaN,25.7,239.8,240.0,1100133413,1100133410,1,11.7,002212,002210,240.7,33.080653,-120.163270,NaN,NaN,NaN,17.817, NaN,NaN,NaN, NaN, NaN